Weather in Kollam

India     8°53′00″N   76°35′26″E
temp.,
°C
wind,
m/s
gust,
m/s
humid.,
%
clouds,
%
prec.,
mm/h
press.,
hPa
HPBL,
m
28 september, tue
tue2823:30+25nw5686100 2.8 1009466
02:30+26nw4686100 4.1 1007560
05:30+26wnw5785100 10.3 1008612
08:30+26w6882100 6.1 1011656
11:30+27w81081100 11.9 1011827
14:30+27w688375 5.0 1007679
17:30+27nw468328 6.8 1007577
20:30+26nw468446 2.3 1011421
29 september, wed
wed2923:30+26nw468613 4.1 1011460
02:30+25nnw578729 0.9 1008463
05:30+25nnw458775 2.1 1009374
08:30+26n458495 0.8 1012404
11:30+27nw458086 1.6 1011553
14:30+27nw6782100 2.1 1008487
17:30+27nw5784100 3.0 1009504
20:30+26nnw5786100 0.4 1011542
30 september, thu
thu3023:30+26nnw5786100 1.5 1011505
02:30+26nnw578792 0.3 1009490
05:30+25n458849 0.4 1010345
08:30+26nnw458684 0.0 1011375
11:30+27nw567899 0.0 1011675
14:30+27nw6780100 0.1 1008527
17:30+27nw6780100 0.1 1008657
20:30+27nnw5783100 0.1 1010624
1 october, fri
fri123:30+26nnw578695 1.3 1010452
02:30+26nnw5786100 0.9 1008467
05:30+26nnw4685100 1.3 1009445
08:30+27n458393 0.0 1010458
11:30+28wnw567830 0.4 1010633
14:30+27wnw56787 3.4 1007485
17:30+27w5678100 3.8 1008552
20:30+26wnw468294 2.4 1010384
2 october, sat
sat223:30+27wnw5679100 4.1 1010529
02:30+26nw4580100 1.2 1007505
05:30+25nnw348660 3.6 1008246
08:30+26nnw3482100 1.5 1010403
11:30+27wnw4480100 3.2 1009510
14:30+27wnw5679100 0.3 1006653
17:30+26wnw4585100 1.4 1007426
20:30+26wnw348791 3.3 1009333